User: anonymous
Location: Waning Moon II Observatory
(30.3730°N, 89.7620°W)
Time: 15:01:35
(UTC-05:00)
Language:

Meteor 1-21 - Orbit

View from above orbital plane
View from above orbital plane
View from above satellite
View from above satellite

Ground track
Ground track

The orbit data is extracted from the following two-line orbital elements,

1 07714U 75023A   14245.22143472  .00000033  00000-0  12505-4 0  8854
2 07714 081.2070 103.7690 0032485 241.8399 250.6087 14.07812686341811
Epoch (UTC): 02 September 2014 05:18:51
Eccentricity: 0.0032485
inclination: 81.2070°
perigee height: 843 km
apogee height: 890 km
right ascension of ascending node: 103.7690°
argument of perigee: 241.8399°
revolutions per day: 14.07812686
mean anomaly at epoch: 250.6087°
orbit number at epoch: 34181

The dashed part of the orbit path shows where the satellite is in the earth's shadow,  

DLR